• Join FlightAware (Why Join?)
  • Login
  • US Flag 
06:30AM EDT


 

Airport Tracker/Info


-or-


 

Live Flight TrackerFlight Track Log ✈ SWA208 ✈ 09-May-2013 ✈ KSNA - KSFO

Flight Track Log - Related Links

Times and Time Zones

All times are in EDT time to prevent confusion due to time zone crossing. See the SWA208 flight status page for this flight to view local times or setup timezone preferences in your user account.

Time Position Orientation Groundspeed Altitude Reporting Facility
EDT Latitude Longitude Course Direction KTS MPH feet Rate Location/Type
12:45AM 33.6500 -117.8833 318° Northwest 138 159 1,900  Level Southern California TRACON
12:46AM 33.6000 -117.9000 196° South 153 176 3,100 1,920 Climbing Southern California TRACON
12:47AM 33.5367 -117.9247 198° South 212 244 6,300 2,820 Climbing Los Angeles Center
12:48AM 33.4667 -117.9758 211° Southwest 279 321 10,100 3,420 Climbing Los Angeles Center
12:49AM 33.3961 -118.0717 229° Southwest 338 389 14,100 3,600 Climbing Los Angeles Center
12:50AM 34.1112 -118.3361 318° Northwest  Level Estimated
12:50AM 33.4369 -118.1750 295° West 356 410 17,500  Level Los Angeles Center
12:51AM 33.5017 -118.2694 309° West 364 419 21,000 3,120 Climbing Los Angeles Center
12:52AM 33.5681 -118.3689 309° West 375 432 23,900 2,400 Climbing Los Angeles Center
12:53AM 33.6250 -118.4528 309° West 389 448 26,000 2,280 Climbing Los Angeles Center
12:54AM 33.7144 -118.5847 309° West 415 478 28,600 2,520 Climbing Los Angeles Center
12:55AM 33.7894 -118.6942 310° West 421 484 31,200 2,100 Climbing Los Angeles Center
12:56AM 33.8642 -118.8058 309° West 425 489 33,000 1,320 Climbing Los Angeles Center
12:57AM 33.9553 -118.9400 309° West 431 496 34,000 1,440 Climbing Los Angeles Center
12:58AM 34.0317 -119.0539 309° West 437 503 36,000 1,920 Climbing Los Angeles Center
12:59AM 34.1053 -119.1647 309° West 427 491 38,000 960 Climbing Los Angeles Center
01:01AM 34.1769 -119.2717 309° West 412 474 38,000  Level Los Angeles Center
01:02AM 34.2472 -119.3794 308° West 410 472 38,000  Level Los Angeles Center
01:03AM 34.3194 -119.4858 309° West 411 473 38,000  Level Los Angeles Center
01:04AM 34.3894 -119.5936 308° West 409 471 38,000  Level Los Angeles Center
01:05AM 34.4614 -119.7028 309° West 412 474 38,000  Level Los Angeles Center
01:06AM 34.5539 -119.8242 313° West 411 473 38,000  Level Los Angeles Center
01:07AM 34.6392 -119.9125 320° Northwest 415 478 38,000  Level Los Angeles Center
01:08AM 34.7244 -120.0058 318° Northwest 413 475 38,000  Level Los Angeles Center
01:09AM 34.8100 -120.0983 318° Northwest 411 473 38,000  Level Los Angeles Center
01:10AM 34.9011 -120.2011 317° Northwest 406 467 38,000  Level Los Angeles Center
01:11AM 34.9839 -120.2917 318° Northwest 403 464 38,000  Level Los Angeles Center
01:12AM 35.0667 -120.3817 318° Northwest 402 463 38,000  Level Los Angeles Center
01:13AM 35.1483 -120.4736 317° Northwest 402 463 38,000  Level Los Angeles Center
01:14AM 35.2353 -120.5575 322° Northwest 398 458 38,000  Level Los Angeles Center
01:15AM 35.3244 -120.6392 323° Northwest 401 461 38,000  Level Los Angeles Center
01:16AM 35.4147 -120.7206 324° Northwest 404 465 38,000  Level Los Angeles Center
01:17AM 35.5403 -120.8353 323° Northwest 402 463 38,000  Level Los Angeles Center
01:18AM 35.6303 -120.9183 323° Northwest 404 465 38,000  Level Los Angeles Center
01:19AM 35.7192 -121.0014 323° Northwest 399 459 38,000  Level Los Angeles Center
01:20AM 35.8278 -121.1019 323° Northwest 406 467 38,000  Level Oakland Center
01:21AM 35.9178 -121.1853 323° Northwest 405 466 38,000  Level Oakland Center
01:22AM 36.0069 -121.2686 323° Northwest 403 464 38,000 -600 Level Oakland Center
01:23AM 36.0972 -121.3492 324° Northwest 400 460 36,800 -1,980 Descending Oakland Center
01:24AM 36.1833 -121.4308 323° Northwest 392 451 34,000 -2,760 Descending Oakland Center
01:25AM 36.2739 -121.5142 323° Northwest 408 470 31,200 -2,580 Descending Oakland Center
01:26AM 36.3644 -121.5994 323° Northwest 413 475 28,800 -2,400 Descending Oakland Center
01:27AM 36.4522 -121.6825 323° Northwest 399 459 26,400 -2,340 Descending Oakland Center
01:28AM 36.5356 -121.7650 322° Northwest 386 444 24,100 -2,220 Descending Oakland Center
01:29AM 36.6211 -121.8442 323° Northwest 360 414 22,000 -2,220 Descending Oakland Center
01:30AM 36.7000 -121.9167 324° Northwest 326 375 19,600 -2,040 Descending Northern Cal TRACON
01:31AM 36.7833 -121.9667 334° Northwest 314 361 17,900 -1,800 Descending Northern Cal TRACON
01:32AM 36.8667 -122.0000 342° North 307 353 16,100 -1,680 Descending Northern Cal TRACON
01:34AM 36.9339 -122.0133 351° North 304 350 14,500 -1,080 Descending Oakland Center
01:35AM 37.0094 -122.0322 349° North 276 318 14,000 -900 Descending Oakland Center
01:36AM 37.0778 -122.0519 347° North 254 292 12,800 -1,260 Descending Oakland Center
01:37AM 37.1369 -122.1311 313° West 257 296 11,500 -1,200 Descending Oakland Center
01:38AM 37.1842 -122.1942 313° West 251 289 10,400 -1,080 Descending Oakland Center
01:39AM 37.2317 -122.2536 315° West 242 278 9,400 -1,140 Descending Oakland Center
01:40AM 37.2775 -122.3136 314° West 239 275 8,200 -1,020 Descending Oakland Center
01:41AM 37.3311 -122.3447 335° Northwest 230 265 7,400 -840 Descending Oakland Center
01:42AM 37.3864 -122.3367 North 202 232 6,600 -720 Descending Oakland Center
01:43AM 37.4217 -122.3053 35° Northeast 215 247 6,000 -300 Descending Oakland Center
01:44AM 37.3975 -122.2439 116° Southeast 203 234 6,000  Level Oakland Center
01:45AM 37.3717 -122.1828 118° Southeast 199 229 6,000 -120 Level Oakland Center
01:46AM 37.3842 -122.1208 76° East 202 232 5,800 -660 Descending Oakland Center
01:47AM 37.4208 -122.0775 43° Northeast 194 223 4,700 -1,020 Descending Oakland Center
01:47AM 37.4667 -122.1000 339° North 191 220 4,000 -660 Descending Northern Cal TRACON
01:48AM 37.5000 -122.1333 322° Northwest 161 185 3,600 -420 Descending Northern Cal TRACON
01:49AM 37.5064 -122.1267 40° Northeast 178 205 3,500 -900 Descending Oakland Center
01:50AM 37.5381 -122.1747 310° West 160 184 2,500 -600 Descending Oakland Center
01:51AM 37.5572 -122.2239 296° West 158 182 2,300 -480 Descending Oakland Center
01:52AM 37.5744 -122.2658 297° West 148 170 1,600 -660 Descending Oakland Center
01:53AM 37.5919 -122.3061 299° West 139 160 1,000 -660 Descending Oakland Center
01:54AM 37.6072 -122.3422 298° West 127 146 300 -420 Descending Oakland Center
01:55AM 37.6225 -122.3794 297° West 126 145 200 -120 Descending Oakland Center
01:57AM 37.6167 -122.3667 North  Level FlightAware Approximate